Year,Month,Day,Hour,Minute,Value (Times are PST for temperature in C)
2015,10,18,00,00,12.40
2015,10,18,00,01,12.40
2015,10,18,00,02,12.40
2015,10,18,00,03,12.40
2015,10,18,00,04,12.40
2015,10,18,00,05,12.40
2015,10,18,00,06,12.40
2015,10,18,00,07,12.40
2015,10,18,00,08,12.40
2015,10,18,00,09,12.40
2015,10,18,00,10,12.40
2015,10,18,00,11,12.40
2015,10,18,00,12,12.30
2015,10,18,00,13,12.30
2015,10,18,00,14,12.30
2015,10,18,00,15,12.30
2015,10,18,00,16,12.30
2015,10,18,00,17,12.30
2015,10,18,00,18,12.30
2015,10,18,00,19,12.30
2015,10,18,00,20,12.30
2015,10,18,00,21,12.30
2015,10,18,00,22,12.30
2015,10,18,00,23,12.30
2015,10,18,00,24,12.20
2015,10,18,00,25,12.20
2015,10,18,00,26,12.20
2015,10,18,00,27,12.20
2015,10,18,00,28,12.20
2015,10,18,00,29,12.20
2015,10,18,00,30,12.10
2015,10,18,00,31,12.10
2015,10,18,00,32,12.10
2015,10,18,00,33,12.10
2015,10,18,00,34,12.10
2015,10,18,00,35,12.10
2015,10,18,00,36,12.00
2015,10,18,00,37,12.00
2015,10,18,00,38,12.00
2015,10,18,00,39,12.00
2015,10,18,00,40,11.90
2015,10,18,00,41,11.90
2015,10,18,00,42,11.90
2015,10,18,00,43,11.90
2015,10,18,00,44,11.90
2015,10,18,00,45,11.90
2015,10,18,00,46,11.80
2015,10,18,00,47,11.80
2015,10,18,00,48,11.80
2015,10,18,00,49,11.70
2015,10,18,00,50,11.70
2015,10,18,00,51,11.60
2015,10,18,00,52,11.60
2015,10,18,00,53,11.60
2015,10,18,00,54,11.60
2015,10,18,00,55,11.60
2015,10,18,00,56,11.60
2015,10,18,00,57,11.60
2015,10,18,00,58,11.60
2015,10,18,00,59,11.60
2015,10,18,01,00,11.60
2015,10,18,01,01,11.60
2015,10,18,01,02,11.60
2015,10,18,01,03,11.60
2015,10,18,01,04,11.50
2015,10,18,01,05,11.50
2015,10,18,01,06,11.50
2015,10,18,01,07,11.50
2015,10,18,01,08,11.50
2015,10,18,01,09,11.50
2015,10,18,01,10,11.50
2015,10,18,01,11,11.50
2015,10,18,01,12,11.50
2015,10,18,01,13,11.50
2015,10,18,01,14,11.50
2015,10,18,01,15,11.50
2015,10,18,01,16,11.50
2015,10,18,01,17,11.50
2015,10,18,01,18,11.50
2015,10,18,01,19,11.60
2015,10,18,01,20,11.60
2015,10,18,01,21,11.60
2015,10,18,01,22,11.60
2015,10,18,01,23,11.60
2015,10,18,01,24,11.60
2015,10,18,01,25,11.60
2015,10,18,01,26,11.60
2015,10,18,01,27,11.60
2015,10,18,01,28,11.60
2015,10,18,01,29,11.60
2015,10,18,01,30,11.60
2015,10,18,01,31,11.60
2015,10,18,01,32,11.60
2015,10,18,01,33,11.60
2015,10,18,01,34,11.60
2015,10,18,01,35,11.60
2015,10,18,01,36,11.60
2015,10,18,01,37,11.60
2015,10,18,01,38,11.60
2015,10,18,01,39,11.60
2015,10,18,01,40,11.60
2015,10,18,01,41,11.60
2015,10,18,01,42,11.60
2015,10,18,01,43,11.60
2015,10,18,01,44,11.60
2015,10,18,01,45,11.60
2015,10,18,01,46,11.60
2015,10,18,01,47,11.60
2015,10,18,01,48,11.60
2015,10,18,01,49,11.60
2015,10,18,01,50,11.60
2015,10,18,01,51,11.60
2015,10,18,01,52,11.60
2015,10,18,01,53,11.60
2015,10,18,01,54,11.60
2015,10,18,01,55,11.70
2015,10,18,01,56,11.70
2015,10,18,01,57,11.60
2015,10,18,01,58,11.60
2015,10,18,01,59,11.60
2015,10,18,02,00,11.60
2015,10,18,02,01,11.60
2015,10,18,02,02,11.60
2015,10,18,02,03,11.60
2015,10,18,02,04,11.60
2015,10,18,02,05,11.60
2015,10,18,02,06,11.60
2015,10,18,02,07,11.60
2015,10,18,02,08,11.60
2015,10,18,02,09,11.60
2015,10,18,02,10,11.60
2015,10,18,02,11,11.60
2015,10,18,02,12,11.60
2015,10,18,02,13,11.60
2015,10,18,02,14,11.70
2015,10,18,02,15,11.70
2015,10,18,02,16,11.70
2015,10,18,02,17,11.70
2015,10,18,02,18,11.70
2015,10,18,02,19,11.70
2015,10,18,02,20,11.60
2015,10,18,02,21,11.60
2015,10,18,02,22,11.60
2015,10,18,02,23,11.60
2015,10,18,02,24,11.60
2015,10,18,02,25,11.60
2015,10,18,02,26,11.60
2015,10,18,02,27,11.60
2015,10,18,02,28,11.60
2015,10,18,02,29,11.60
2015,10,18,02,30,11.50
2015,10,18,02,31,11.50
2015,10,18,02,32,11.50
2015,10,18,02,33,11.50
2015,10,18,02,34,11.50
2015,10,18,02,35,11.50
2015,10,18,02,36,11.50
2015,10,18,02,37,11.60
2015,10,18,02,38,11.60
2015,10,18,02,39,11.60
2015,10,18,02,40,11.60
2015,10,18,02,41,11.60
2015,10,18,02,42,11.60
2015,10,18,02,43,11.60
2015,10,18,02,44,11.60
2015,10,18,02,45,11.60
2015,10,18,02,46,11.60
2015,10,18,02,47,11.60
2015,10,18,02,48,11.60
2015,10,18,02,49,11.60
2015,10,18,02,50,11.60
2015,10,18,02,51,11.60
2015,10,18,02,52,11.60
2015,10,18,02,53,11.70
2015,10,18,02,54,11.70
2015,10,18,02,55,11.70
2015,10,18,02,56,11.70
2015,10,18,02,57,11.70
2015,10,18,02,58,11.70
2015,10,18,02,59,11.70
2015,10,18,03,00,11.80
2015,10,18,03,01,11.80
2015,10,18,03,02,11.80
2015,10,18,03,03,11.80
2015,10,18,03,04,11.80
2015,10,18,03,05,11.80
2015,10,18,03,06,11.80
2015,10,18,03,07,11.80
2015,10,18,03,08,11.80
2015,10,18,03,09,11.80
2015,10,18,03,10,11.80
2015,10,18,03,11,11.80
2015,10,18,03,12,11.80
2015,10,18,03,13,11.80
2015,10,18,03,14,11.80
2015,10,18,03,15,11.80
2015,10,18,03,16,11.80
2015,10,18,03,17,11.80
2015,10,18,03,18,11.80
2015,10,18,03,19,11.90
2015,10,18,03,20,11.80
2015,10,18,03,21,11.90
2015,10,18,03,22,11.80
2015,10,18,03,23,11.90
2015,10,18,03,24,11.90
2015,10,18,03,25,11.90
2015,10,18,03,26,11.90
2015,10,18,03,27,11.80
2015,10,18,03,28,11.80
2015,10,18,03,29,11.80
2015,10,18,03,30,11.80
2015,10,18,03,31,11.80
2015,10,18,03,32,11.80
2015,10,18,03,33,11.80
2015,10,18,03,34,11.80
2015,10,18,03,35,11.80
2015,10,18,03,36,11.80
2015,10,18,03,37,11.80
2015,10,18,03,38,11.80
2015,10,18,03,39,11.80
2015,10,18,03,40,11.80
2015,10,18,03,41,11.80
2015,10,18,03,42,11.80
2015,10,18,03,43,11.80
2015,10,18,03,44,11.80
2015,10,18,03,45,11.80
2015,10,18,03,46,11.80
2015,10,18,03,47,11.80
2015,10,18,03,48,11.80
2015,10,18,03,49,11.80
2015,10,18,03,50,11.80
2015,10,18,03,51,11.90
2015,10,18,03,52,11.90
2015,10,18,03,53,11.90
2015,10,18,03,54,11.90
2015,10,18,03,55,11.90
2015,10,18,03,56,11.90
2015,10,18,03,57,11.80
2015,10,18,03,58,11.80
2015,10,18,03,59,11.80
2015,10,18,04,00,11.80
2015,10,18,04,01,11.80
2015,10,18,04,02,11.80
2015,10,18,04,03,11.80
2015,10,18,04,04,11.80
2015,10,18,04,05,11.80
2015,10,18,04,06,11.80
2015,10,18,04,07,11.70
2015,10,18,04,08,11.70
2015,10,18,04,09,11.70
2015,10,18,04,10,11.70
2015,10,18,04,11,11.70
2015,10,18,04,12,11.70
2015,10,18,04,13,11.60
2015,10,18,04,14,11.60
2015,10,18,04,15,11.60
2015,10,18,04,16,11.60
2015,10,18,04,17,11.60
2015,10,18,04,18,11.60
2015,10,18,04,19,11.60
2015,10,18,04,20,11.60
2015,10,18,04,21,11.60
2015,10,18,04,22,11.60
2015,10,18,04,23,11.60
2015,10,18,04,24,11.60
2015,10,18,04,25,11.60
2015,10,18,04,26,11.60
2015,10,18,04,27,11.60
2015,10,18,04,28,11.60
2015,10,18,04,29,11.60
2015,10,18,04,30,11.60
2015,10,18,04,31,11.60
2015,10,18,04,32,11.60
2015,10,18,04,33,11.60
2015,10,18,04,34,11.50
2015,10,18,04,35,11.50
2015,10,18,04,36,11.50
2015,10,18,04,37,11.50
2015,10,18,04,38,11.50
2015,10,18,04,39,11.50
2015,10,18,04,40,11.50
2015,10,18,04,41,11.50
2015,10,18,04,42,11.50
2015,10,18,04,43,11.50
2015,10,18,04,44,11.40
2015,10,18,04,45,11.50
2015,10,18,04,46,11.50
2015,10,18,04,47,11.50
2015,10,18,04,48,11.50
2015,10,18,04,49,11.40
2015,10,18,04,50,11.40
2015,10,18,04,51,11.50
2015,10,18,04,52,11.40
2015,10,18,04,53,11.40
2015,10,18,04,54,11.40
2015,10,18,04,55,11.40
2015,10,18,04,56,11.40
2015,10,18,04,57,11.40
2015,10,18,04,58,11.40
2015,10,18,04,59,11.50
2015,10,18,05,00,11.50
2015,10,18,05,01,11.50
2015,10,18,05,02,11.50
2015,10,18,05,03,11.50
2015,10,18,05,04,11.50
2015,10,18,05,05,11.50
2015,10,18,05,06,11.50
2015,10,18,05,07,11.50
2015,10,18,05,08,11.50
2015,10,18,05,09,11.50
2015,10,18,05,10,11.50
2015,10,18,05,11,11.50
2015,10,18,05,12,11.50
2015,10,18,05,13,11.50
2015,10,18,05,14,11.50
2015,10,18,05,15,11.40
2015,10,18,05,16,11.40
2015,10,18,05,17,11.40
2015,10,18,05,18,11.50
2015,10,18,05,19,11.50
2015,10,18,05,20,11.50
2015,10,18,05,21,11.50
2015,10,18,05,22,11.50
2015,10,18,05,23,11.50
2015,10,18,05,24,11.50
2015,10,18,05,25,11.50
2015,10,18,05,26,11.50
2015,10,18,05,27,11.50
2015,10,18,05,28,11.50
2015,10,18,05,29,11.40
2015,10,18,05,30,11.40
2015,10,18,05,31,11.40
2015,10,18,05,32,11.40
2015,10,18,05,33,11.40
2015,10,18,05,34,11.40
2015,10,18,05,35,11.40
2015,10,18,05,36,11.40
2015,10,18,05,37,11.40
2015,10,18,05,38,11.40
2015,10,18,08,27,12.20
2015,10,18,08,28,12.20
2015,10,18,08,29,12.20
2015,10,18,08,30,12.20
2015,10,18,08,31,12.20
2015,10,18,08,32,12.20
2015,10,18,08,33,12.20
2015,10,18,08,34,12.20
2015,10,18,08,35,12.20
2015,10,18,08,36,12.20
2015,10,18,08,37,12.20
2015,10,18,08,38,12.20
2015,10,18,08,39,12.30
2015,10,18,08,40,12.30
2015,10,18,08,41,12.30
2015,10,18,08,42,12.30
2015,10,18,08,43,12.30
2015,10,18,08,44,12.30
2015,10,18,08,45,12.30
2015,10,18,08,46,12.30
2015,10,18,08,47,12.30
2015,10,18,08,48,12.30
2015,10,18,08,49,12.30
2015,10,18,08,50,12.30
2015,10,18,08,51,12.30
2015,10,18,08,52,12.30
2015,10,18,08,53,12.30
2015,10,18,08,54,12.40
2015,10,18,08,55,12.40
2015,10,18,08,56,12.40
2015,10,18,08,57,12.40
2015,10,18,08,58,12.40
2015,10,18,08,59,12.40
2015,10,18,09,00,12.40
2015,10,18,09,01,12.50
2015,10,18,09,02,12.50
2015,10,18,09,03,12.50
2015,10,18,09,04,12.50
2015,10,18,09,05,12.50
2015,10,18,09,06,12.60
2015,10,18,09,07,12.60
2015,10,18,09,08,12.60
2015,10,18,09,09,12.60
2015,10,18,09,10,12.70
2015,10,18,09,11,12.70
2015,10,18,09,12,12.70
2015,10,18,09,13,12.70
2015,10,18,09,14,12.70
2015,10,18,09,15,12.80
2015,10,18,09,16,12.80
2015,10,18,09,17,12.80
2015,10,18,09,18,12.80
2015,10,18,09,19,12.80
2015,10,18,09,20,12.80
2015,10,18,09,21,12.80
2015,10,18,09,22,12.80
2015,10,18,09,23,12.80
2015,10,18,09,24,12.80
2015,10,18,09,25,12.90
2015,10,18,09,26,12.90
2015,10,18,09,27,12.90
2015,10,18,09,28,12.90
2015,10,18,09,29,12.90
2015,10,18,09,30,12.90
2015,10,18,09,31,12.90
2015,10,18,09,32,12.90
2015,10,18,09,33,12.90
2015,10,18,09,34,12.90
2015,10,18,09,35,12.90
2015,10,18,09,36,13.00
2015,10,18,09,37,13.00
2015,10,18,09,38,13.00
2015,10,18,09,39,13.10
2015,10,18,09,40,13.10
2015,10,18,09,41,13.10
2015,10,18,09,42,13.10
2015,10,18,09,43,13.20
2015,10,18,09,44,13.20
2015,10,18,09,45,13.20
2015,10,18,09,46,13.20
2015,10,18,09,47,13.20
2015,10,18,09,48,13.10
2015,10,18,09,49,13.10
2015,10,18,09,50,13.10
2015,10,18,09,51,13.10
2015,10,18,09,52,13.10
2015,10,18,09,53,13.10
2015,10,18,09,54,13.10
2015,10,18,09,55,13.10
2015,10,18,09,56,13.10
2015,10,18,09,57,13.10
2015,10,18,09,58,13.10
2015,10,18,09,59,13.10
2015,10,18,10,00,13.10
2015,10,18,10,01,13.10
2015,10,18,10,02,13.10
2015,10,18,10,03,13.10
2015,10,18,10,04,13.10
2015,10,18,10,05,13.10
2015,10,18,10,06,13.10
2015,10,18,10,07,13.10
2015,10,18,10,08,13.10
2015,10,18,10,09,13.10
2015,10,18,10,10,13.10
2015,10,18,10,11,13.20
2015,10,18,10,12,13.20
2015,10,18,10,13,13.20
2015,10,18,10,14,13.20
2015,10,18,10,15,13.20
2015,10,18,10,16,13.20
2015,10,18,10,17,13.20
2015,10,18,10,18,13.20
2015,10,18,10,19,13.20
2015,10,18,10,20,13.20
2015,10,18,10,21,13.20
2015,10,18,10,22,13.20
2015,10,18,10,23,13.30
2015,10,18,10,24,13.30
2015,10,18,10,25,13.20
2015,10,18,10,26,13.30
2015,10,18,10,27,13.30
2015,10,18,10,28,13.30
2015,10,18,10,29,13.30
2015,10,18,10,30,13.30
2015,10,18,10,31,13.30
2015,10,18,10,32,13.30
2015,10,18,10,33,13.30
2015,10,18,10,34,13.30
2015,10,18,10,35,13.30
2015,10,18,10,36,13.30
2015,10,18,10,37,13.40
2015,10,18,10,38,13.40
2015,10,18,10,39,13.40
2015,10,18,10,40,13.40
2015,10,18,10,41,13.40
2015,10,18,10,42,13.40
2015,10,18,10,43,13.40
2015,10,18,10,44,13.40
2015,10,18,10,45,13.40
2015,10,18,10,46,13.40
2015,10,18,10,47,13.40
2015,10,18,10,48,13.40
2015,10,18,10,49,13.50
2015,10,18,10,50,13.50
2015,10,18,10,51,13.50
2015,10,18,10,52,13.60
2015,10,18,10,53,13.60
2015,10,18,10,54,13.60
2015,10,18,10,55,13.60
2015,10,18,10,56,13.60
2015,10,18,10,57,13.60
2015,10,18,10,58,13.70
2015,10,18,10,59,13.70
2015,10,18,11,00,13.70
2015,10,18,11,01,13.70
2015,10,18,11,02,13.70
2015,10,18,11,03,13.70
2015,10,18,11,04,13.70
2015,10,18,11,05,13.70
2015,10,18,11,06,13.70
2015,10,18,11,07,13.70
2015,10,18,11,08,13.70
2015,10,18,11,09,13.80
2015,10,18,11,10,13.80
2015,10,18,11,11,13.80
2015,10,18,11,12,13.80
2015,10,18,11,13,13.80
2015,10,18,11,14,13.80
2015,10,18,11,15,13.80
2015,10,18,11,16,13.80
2015,10,18,11,17,13.80
2015,10,18,11,18,13.90
2015,10,18,11,19,13.90
2015,10,18,11,20,13.90
2015,10,18,11,21,13.90
2015,10,18,11,22,14.00
2015,10,18,11,23,14.00
2015,10,18,11,24,14.00
2015,10,18,11,25,14.10
2015,10,18,11,26,14.10
2015,10,18,11,27,14.10
2015,10,18,11,28,14.10
2015,10,18,11,29,14.10
2015,10,18,11,30,14.20
2015,10,18,11,31,14.20
2015,10,18,11,32,14.20
2015,10,18,11,33,14.20
2015,10,18,11,34,14.30
2015,10,18,11,35,14.30
2015,10,18,11,36,14.30
2015,10,18,11,37,14.30
2015,10,18,11,38,14.40
2015,10,18,11,39,14.40
2015,10,18,11,40,14.40
2015,10,18,11,41,14.40
2015,10,18,11,42,14.40
2015,10,18,11,43,14.50
2015,10,18,11,44,14.50
2015,10,18,11,45,14.50
2015,10,18,11,46,14.50
2015,10,18,11,47,14.60
2015,10,18,11,48,14.60
2015,10,18,11,49,14.60
2015,10,18,11,50,14.60
2015,10,18,11,51,14.60
2015,10,18,11,52,14.60
2015,10,18,11,53,14.60
2015,10,18,11,54,14.60
2015,10,18,11,55,14.60
2015,10,18,11,56,14.60
2015,10,18,11,57,14.70
2015,10,18,11,58,14.70
2015,10,18,11,59,14.70
2015,10,18,12,00,14.70
2015,10,18,12,01,14.70
2015,10,18,12,02,14.70
2015,10,18,12,03,14.70
2015,10,18,12,04,14.70
2015,10,18,12,05,14.70
2015,10,18,12,06,14.70
2015,10,18,12,07,14.80
2015,10,18,12,08,14.70
2015,10,18,12,09,14.80
2015,10,18,12,10,14.80
2015,10,18,12,11,14.80
2015,10,18,12,12,14.80
2015,10,18,12,13,14.80
2015,10,18,12,14,14.80
2015,10,18,12,15,14.80
2015,10,18,12,16,14.80
2015,10,18,12,17,14.80
2015,10,18,12,18,14.80
2015,10,18,12,19,14.80
2015,10,18,12,20,14.80
2015,10,18,12,21,14.80
2015,10,18,12,22,14.80
2015,10,18,12,23,14.80
2015,10,18,12,24,14.80
2015,10,18,12,25,14.80
2015,10,18,12,26,14.80
2015,10,18,12,27,14.80
2015,10,18,12,28,14.80
2015,10,18,12,29,14.80
2015,10,18,12,30,14.80
2015,10,18,12,31,14.80
2015,10,18,12,32,14.80
2015,10,18,12,33,14.80
2015,10,18,12,34,14.80
2015,10,18,12,35,14.80
2015,10,18,12,36,14.80
2015,10,18,12,37,14.80
2015,10,18,12,38,14.80
2015,10,18,12,39,14.90
2015,10,18,12,40,14.90
2015,10,18,12,41,14.90
2015,10,18,12,42,14.90
2015,10,18,12,43,14.90
2015,10,18,12,44,14.90
2015,10,18,12,45,14.90
2015,10,18,12,46,14.90
2015,10,18,12,47,14.90
2015,10,18,12,48,14.90
2015,10,18,12,49,14.90
2015,10,18,12,50,15.00
2015,10,18,12,51,15.00
2015,10,18,12,52,15.00
2015,10,18,12,53,15.10
2015,10,18,12,54,15.10
2015,10,18,12,55,15.20
2015,10,18,12,56,15.20
2015,10,18,12,57,15.30
2015,10,18,12,58,15.30
2015,10,18,12,59,15.30
2015,10,18,13,00,15.30
2015,10,18,13,01,15.30
2015,10,18,13,02,15.40
2015,10,18,13,03,15.40
2015,10,18,13,04,15.50
2015,10,18,13,05,15.50
2015,10,18,13,06,15.60
2015,10,18,13,07,15.60
2015,10,18,13,08,15.60
2015,10,18,13,09,15.60
2015,10,18,13,10,15.60
2015,10,18,13,11,15.60
2015,10,18,13,12,15.60
2015,10,18,13,13,15.60
2015,10,18,13,14,15.60
2015,10,18,13,15,15.60
2015,10,18,13,16,15.60
2015,10,18,13,17,15.60
2015,10,18,13,18,15.60
2015,10,18,13,19,15.60
2015,10,18,13,20,15.70
2015,10,18,13,21,15.70
2015,10,18,13,22,15.70
2015,10,18,13,23,15.80
2015,10,18,13,24,15.80
2015,10,18,13,25,15.80
2015,10,18,13,26,15.90
2015,10,18,13,27,15.90
2015,10,18,13,28,16.00
2015,10,18,13,29,16.00
2015,10,18,13,30,16.00
2015,10,18,13,31,16.10
2015,10,18,13,32,16.10
2015,10,18,13,33,16.10
2015,10,18,13,34,16.20
2015,10,18,13,35,16.20
2015,10,18,13,36,16.20
2015,10,18,13,37,16.20
2015,10,18,13,38,16.20
2015,10,18,13,39,16.20
2015,10,18,13,40,16.20
2015,10,18,13,41,16.20
2015,10,18,13,42,16.20
2015,10,18,13,43,16.30
2015,10,18,13,44,16.30
2015,10,18,13,45,16.30
2015,10,18,13,46,16.30
2015,10,18,13,47,16.30
2015,10,18,13,48,16.30
2015,10,18,13,49,16.30
2015,10,18,13,50,16.30
2015,10,18,13,51,16.30
2015,10,18,13,52,16.30
2015,10,18,13,53,16.30
2015,10,18,13,54,16.20
2015,10,18,13,55,16.20
2015,10,18,13,56,16.20
2015,10,18,13,57,16.20
2015,10,18,13,58,16.20
2015,10,18,13,59,16.10
2015,10,18,14,00,16.10
2015,10,18,14,01,16.10
2015,10,18,14,02,16.10
2015,10,18,14,03,16.20
2015,10,18,14,04,16.10
2015,10,18,14,05,16.10
2015,10,18,14,06,16.10
2015,10,18,14,07,16.10
2015,10,18,14,08,16.10
2015,10,18,14,09,16.10
2015,10,18,14,10,16.00
2015,10,18,14,11,16.00
2015,10,18,14,12,15.90
2015,10,18,14,13,15.90
2015,10,18,14,14,15.90
2015,10,18,14,15,15.90
2015,10,18,14,16,15.90
2015,10,18,14,17,15.90
2015,10,18,14,18,15.90
2015,10,18,14,19,15.90
2015,10,18,14,20,15.90
2015,10,18,14,21,15.90
2015,10,18,14,22,15.90
2015,10,18,14,23,16.00
2015,10,18,14,24,16.00
2015,10,18,14,25,16.00
2015,10,18,14,26,16.00
2015,10,18,14,27,16.00
2015,10,18,14,28,16.00
2015,10,18,14,29,16.10
2015,10,18,14,30,16.10
2015,10,18,14,31,16.10
2015,10,18,14,32,16.10
2015,10,18,14,33,16.10
2015,10,18,14,34,16.00
2015,10,18,14,35,15.90
2015,10,18,14,36,15.90
2015,10,18,14,37,15.90
2015,10,18,14,38,15.90
2015,10,18,14,39,15.90
2015,10,18,14,40,15.90
2015,10,18,14,41,15.90
2015,10,18,14,42,15.90
2015,10,18,14,43,15.90
2015,10,18,14,44,15.90
2015,10,18,14,45,15.90
2015,10,18,14,46,15.90
2015,10,18,14,47,16.00
2015,10,18,14,48,16.00
2015,10,18,14,49,16.00
2015,10,18,14,50,16.00
2015,10,18,14,51,16.00
2015,10,18,14,52,16.00
2015,10,18,14,53,16.10
2015,10,18,14,54,16.10
2015,10,18,14,55,16.10
2015,10,18,14,56,16.20
2015,10,18,14,57,16.20
2015,10,18,14,58,16.30
2015,10,18,14,59,16.30
2015,10,18,15,00,16.40
2015,10,18,15,01,16.40
2015,10,18,15,02,16.50
2015,10,18,15,03,16.60
2015,10,18,15,04,16.70
2015,10,18,15,05,16.80
2015,10,18,15,06,16.80
2015,10,18,15,07,16.80
2015,10,18,15,08,16.80
2015,10,18,15,09,16.90
2015,10,18,15,10,16.90
2015,10,18,15,11,16.90
2015,10,18,15,12,16.90
2015,10,18,15,13,17.00
2015,10,18,15,14,17.00
2015,10,18,15,15,17.10
2015,10,18,15,16,17.10
2015,10,18,15,17,17.10
2015,10,18,15,18,17.20
2015,10,18,15,19,17.20
2015,10,18,15,20,17.20
2015,10,18,15,21,17.20
2015,10,18,15,22,17.20
2015,10,18,15,23,17.20
2015,10,18,15,24,17.20
2015,10,18,15,25,17.20
2015,10,18,15,26,17.20
2015,10,18,15,27,17.10
2015,10,18,15,28,17.20
2015,10,18,15,29,17.20
2015,10,18,15,30,17.20
2015,10,18,15,31,17.20
2015,10,18,15,32,17.20
2015,10,18,15,33,17.30
2015,10,18,15,34,17.30
2015,10,18,15,35,17.30
2015,10,18,15,36,17.20
2015,10,18,15,37,17.20
2015,10,18,15,38,17.20
2015,10,18,15,39,17.10
2015,10,18,15,40,17.20
2015,10,18,15,41,17.20
2015,10,18,15,42,17.20
2015,10,18,15,43,17.20
2015,10,18,15,44,17.20
2015,10,18,15,45,17.20
2015,10,18,15,46,17.20
2015,10,18,15,47,17.20
2015,10,18,15,48,17.20
2015,10,18,15,49,17.20
2015,10,18,15,50,17.20
2015,10,18,15,51,17.20
2015,10,18,15,52,17.20
2015,10,18,15,53,17.10
2015,10,18,15,54,17.10
2015,10,18,15,55,17.00
2015,10,18,15,56,16.90
2015,10,18,15,57,16.90
2015,10,18,15,58,16.80
2015,10,18,15,59,16.80
2015,10,18,16,00,16.80
2015,10,18,16,01,16.80
2015,10,18,16,02,16.80
2015,10,18,16,03,16.80
2015,10,18,16,04,16.70
2015,10,18,16,05,16.70
2015,10,18,16,06,16.70
2015,10,18,16,07,16.60
2015,10,18,16,08,16.60
2015,10,18,16,09,16.60
2015,10,18,16,10,16.60
2015,10,18,16,11,16.60
2015,10,18,16,12,16.60
2015,10,18,16,13,16.50
2015,10,18,16,14,16.40
2015,10,18,16,15,16.40
2015,10,18,16,16,16.30
2015,10,18,16,17,16.30
2015,10,18,16,18,16.30
2015,10,18,16,19,16.20
2015,10,18,16,20,16.20
2015,10,18,16,21,16.10
2015,10,18,16,22,16.10
2015,10,18,16,23,16.00
2015,10,18,16,24,16.00
2015,10,18,16,25,15.90
2015,10,18,16,26,15.90
2015,10,18,16,27,15.90
2015,10,18,16,28,15.90
2015,10,18,16,29,15.80
2015,10,18,16,30,15.80
2015,10,18,16,31,15.80
2015,10,18,16,32,15.80
2015,10,18,16,33,15.80
2015,10,18,16,34,15.90
2015,10,18,16,35,15.90
2015,10,18,16,36,15.90
2015,10,18,16,37,15.90
2015,10,18,16,38,15.80
2015,10,18,16,39,15.80
2015,10,18,16,40,15.80
2015,10,18,16,41,15.80
2015,10,18,16,42,15.70
2015,10,18,16,43,15.70
2015,10,18,16,44,15.60
2015,10,18,16,45,15.60
2015,10,18,16,46,15.60
2015,10,18,16,47,15.60
2015,10,18,16,48,15.60
2015,10,18,16,49,15.60
2015,10,18,16,50,15.50
2015,10,18,16,51,15.50
2015,10,18,16,52,15.50
2015,10,18,16,53,15.40
2015,10,18,16,54,15.40
2015,10,18,16,55,15.40
2015,10,18,16,56,15.40
2015,10,18,16,57,15.40
2015,10,18,16,58,15.40
2015,10,18,16,59,15.40
2015,10,18,17,00,15.40
2015,10,18,17,01,15.40
2015,10,18,17,02,15.40
2015,10,18,17,03,15.40
2015,10,18,17,04,15.40
2015,10,18,17,05,15.30
2015,10,18,17,06,15.20
2015,10,18,17,07,15.20
2015,10,18,17,08,15.20
2015,10,18,17,09,15.10
2015,10,18,17,10,15.10
2015,10,18,17,11,15.00
2015,10,18,17,12,15.00
2015,10,18,17,13,14.90
2015,10,18,17,14,14.90
2015,10,18,17,15,14.80
2015,10,18,17,16,14.80
2015,10,18,17,17,14.80
2015,10,18,17,18,14.80
2015,10,18,17,19,14.80
2015,10,18,17,20,14.80
2015,10,18,17,21,14.80
2015,10,18,17,22,14.80
2015,10,18,17,23,14.80
2015,10,18,17,24,14.70
2015,10,18,17,25,14.70
2015,10,18,17,26,14.70
2015,10,18,17,27,14.70
2015,10,18,17,28,14.70
2015,10,18,17,29,14.70
2015,10,18,17,30,14.60
2015,10,18,17,31,14.60
2015,10,18,17,32,14.60
2015,10,18,17,33,14.60
2015,10,18,17,34,14.60
2015,10,18,17,35,14.60
2015,10,18,17,36,14.60
2015,10,18,17,37,14.60
2015,10,18,17,38,14.60
2015,10,18,17,39,14.60
2015,10,18,17,40,14.70
2015,10,18,17,41,14.70
2015,10,18,17,42,14.60
2015,10,18,17,43,14.60
2015,10,18,17,44,14.60
2015,10,18,17,45,14.60
2015,10,18,17,46,14.60
2015,10,18,17,47,14.60
2015,10,18,17,48,14.60
2015,10,18,17,49,14.60
2015,10,18,17,50,14.60
2015,10,18,17,51,14.60
2015,10,18,17,52,14.60
2015,10,18,17,53,14.60
2015,10,18,17,54,14.60
2015,10,18,17,55,14.60
2015,10,18,17,56,14.60
2015,10,18,17,57,14.60
2015,10,18,17,58,14.60
2015,10,18,17,59,14.60
2015,10,18,18,00,14.70
2015,10,18,18,01,14.60
2015,10,18,18,02,14.70
2015,10,18,18,03,14.70
2015,10,18,18,04,14.60
2015,10,18,18,05,14.60
2015,10,18,18,06,14.60
2015,10,18,18,07,14.60
2015,10,18,18,08,14.60
2015,10,18,18,09,14.70
2015,10,18,18,10,14.70
2015,10,18,18,11,14.70
2015,10,18,18,12,14.70
2015,10,18,18,13,14.70
2015,10,18,18,14,14.70
2015,10,18,18,15,14.70
2015,10,18,18,16,14.70
2015,10,18,18,17,14.60
2015,10,18,18,18,14.60
2015,10,18,18,19,14.60
2015,10,18,18,20,14.60
2015,10,18,18,21,14.60
2015,10,18,18,22,14.60
2015,10,18,18,23,14.60
2015,10,18,18,24,14.60
2015,10,18,18,25,14.50
2015,10,18,18,26,14.50
2015,10,18,18,27,14.50
2015,10,18,18,28,14.50
2015,10,18,18,29,14.50
2015,10,18,18,30,14.50
2015,10,18,18,31,14.40
2015,10,18,18,32,14.40
2015,10,18,18,33,14.40
2015,10,18,18,34,14.40
2015,10,18,18,35,14.40
2015,10,18,18,36,14.40
2015,10,18,18,37,14.40
2015,10,18,18,38,14.40
2015,10,18,18,39,14.40
2015,10,18,18,40,14.40
2015,10,18,18,41,14.40
2015,10,18,18,42,14.40
2015,10,18,18,43,14.40
2015,10,18,18,44,14.40
2015,10,18,18,45,14.40
2015,10,18,18,46,14.40
2015,10,18,18,47,14.40
2015,10,18,18,48,14.40
2015,10,18,18,49,14.40
2015,10,18,18,50,14.40
2015,10,18,18,51,14.40
2015,10,18,18,52,14.40
2015,10,18,18,53,14.40
2015,10,18,18,54,14.40
2015,10,18,18,55,14.40
2015,10,18,18,56,14.40
2015,10,18,18,57,14.40
2015,10,18,18,58,14.40
2015,10,18,18,59,14.40
2015,10,18,19,00,14.30
2015,10,18,19,01,14.40
2015,10,18,19,02,14.40
2015,10,18,19,03,14.30
2015,10,18,19,04,14.30
2015,10,18,19,05,14.40
2015,10,18,19,06,14.40
2015,10,18,19,07,14.30
2015,10,18,19,08,14.30
2015,10,18,19,09,14.30
2015,10,18,19,10,14.30
2015,10,18,19,11,14.30
2015,10,18,19,12,14.30
2015,10,18,19,13,14.30
2015,10,18,19,14,14.40
2015,10,18,19,15,14.30
2015,10,18,19,16,14.30
2015,10,18,19,17,14.30
2015,10,18,19,18,14.30
2015,10,18,19,19,14.30
2015,10,18,19,20,14.30
2015,10,18,19,21,14.30
2015,10,18,19,22,14.30
2015,10,18,19,23,14.30
2015,10,18,19,24,14.30
2015,10,18,19,25,14.30
2015,10,18,19,26,14.30
2015,10,18,19,27,14.30
2015,10,18,19,28,14.30
2015,10,18,19,29,14.30
2015,10,18,19,30,14.40
2015,10,18,19,31,14.40
2015,10,18,19,32,14.40
2015,10,18,19,33,14.40
2015,10,18,19,34,14.40
2015,10,18,19,35,14.40
2015,10,18,19,36,14.30
2015,10,18,19,37,14.30
2015,10,18,19,38,14.30
2015,10,18,19,39,14.30
2015,10,18,19,40,14.30
2015,10,18,19,41,14.30
2015,10,18,19,42,14.30
2015,10,18,19,43,14.30
2015,10,18,19,44,14.30
2015,10,18,19,45,14.30
2015,10,18,19,46,14.30
2015,10,18,19,47,14.30
2015,10,18,19,48,14.30
2015,10,18,19,49,14.30
2015,10,18,19,50,14.30
2015,10,18,19,51,14.30
2015,10,18,19,52,14.30
2015,10,18,19,53,14.30
2015,10,18,19,54,14.30
2015,10,18,19,55,14.30
2015,10,18,19,56,14.30
2015,10,18,19,57,14.30
2015,10,18,19,58,14.30
2015,10,18,19,59,14.30
2015,10,18,20,00,14.30
2015,10,18,20,01,14.30
2015,10,18,20,02,14.30
2015,10,18,20,03,14.30
2015,10,18,20,04,14.30
2015,10,18,20,05,14.30
2015,10,18,20,06,14.30
2015,10,18,20,07,14.20